Back to catalog

STARLINK-32346

AliveCommunicationsVLEO
NORAD 61849·PAYLOAD·🇺🇸 United States

Launched Nov 7, 2024 from Cape Canaveral Space Force Station

Loading…

Next Passes (next 24 hours)

TLE

FreshSource: CelesTrak SupGP

Epoch: Sep 14, 2026, 22:20 UTC

1 61849C 24202E   26257.93104167  .00025240  00000+0  91433-3 0  2573
2 61849  42.9994 238.2070 0001367 263.1807 228.9131 15.27561506    18

Track STARLINK-32346 in real time with AllMySat

Download on the App Store